Change the Weather History Date:

Friday, November 2, 2012

  Actual Average Record
Temperature  
Mean Temperature 18 °F -  
Max Temperature 24 °F - - ()
Min Temperature 12 °F - - ()
Degree Days  
Heating Degree Days 47    
Moisture  
Dew Point 10 °F    
Average Humidity 73    
Maximum Humidity 100    
Minimum Humidity 53    
Precipitation  
Precipitation 0.00 in - - ()
Sea Level Pressure  
Sea Level Pressure 30.03 in    
Wind  
Wind Speed 12 mph (NNW)    
Max Wind Speed 31 mph    
Max Gust Speed 41 mph    
Visibility 10 miles    
Events      
T = Trace of Precipitation, MM = Missing Value Source: NWS Daily Summary

Daily Weather History Graph

Daily Weather History Graph

Search for Another Location

Airport or City:

Trip Planner

Search our weather history database for the weather conditions in past years. The results will help you decide how hot, cold, wet, or windy it might be!

Date:

Astronomy

Nov. 02, 2012 Rise Set
Actual Time 10:43 AM AKDT 6:26 PM AKDT
Civil Twilight 9:48 AM AKDT 7:21 PM AKDT
Nautical Twilight 8:50 AM AKDT 8:19 PM AKDT
Astronomical Twilight 7:53 AM AKDT 9:15 PM AKDT
Moon 8:27 PM AKDT (11/2) 3:12 PM AKDT (11/2)
Length of Visible Light 9h 33m
Length of Day
7h 43m
Waning Gibbous, 86% of the Moon is Illuminated
Nov 2
Waning Gibbous
Nov 6
Last Quarter
Nov 13
New
Nov 20
First Quarter
Nov 28
Full

Hourly Weather History & Observations

Time (AKDT) Temp. Windchill Dew Point Humidity Pressure Visibility Wind Dir Wind Speed Gust Speed Precip Events Conditions
12:16 AM 14.0 °F 2.0 °F 8.6 °F 79% 30.20 in 10.0 mi NW 9.2 mph - N/A   Clear
12:36 AM 14.0 °F 2.0 °F 8.6 °F 79% 30.19 in 10.0 mi NNW 9.2 mph - N/A   Clear
12:56 AM 14.0 °F 3.9 °F 8.6 °F 79% 30.19 in 10.0 mi NW 6.9 mph - N/A   Clear
1:16 AM 12.2 °F 2.9 °F 8.6 °F 85% 30.19 in 10.0 mi NNW 5.8 mph - N/A   Clear
1:36 AM 14.0 °F 2.0 °F 8.6 °F 79% 30.18 in 10.0 mi NW 9.2 mph - N/A   Clear
1:56 AM 14.0 °F 2.0 °F 8.6 °F 79% 30.18 in 10.0 mi NNW 9.2 mph - N/A   Clear
2:16 AM 14.0 °F 2.9 °F 8.6 °F 79% 30.17 in 10.0 mi NNW 8.1 mph - N/A   Clear
2:36 AM 14.0 °F 2.9 °F 10.4 °F 86% 30.17 in 10.0 mi NNW 8.1 mph - N/A   Clear
2:56 AM 12.2 °F 1.7 °F 8.6 °F 85% 30.16 in 10.0 mi NNW 6.9 mph - N/A   Clear
3:16 AM 12.2 °F 2.9 °F 8.6 °F 85% 30.16 in 10.0 mi NNW 5.8 mph - N/A   Clear
3:36 AM 14.0 °F 3.9 °F 10.4 °F 86% 30.15 in 10.0 mi NNW 6.9 mph - N/A   Scattered Clouds
3:56 AM 12.2 °F -0.2 °F 6.8 °F 79% 30.15 in 10.0 mi NNW 9.2 mph - N/A   Partly Cloudy
4:16 AM 14.0 °F 5.1 °F 8.6 °F 79% 30.14 in 10.0 mi NW 5.8 mph - N/A   Clear
4:36 AM 15.8 °F 5.1 °F 10.4 °F 79% 30.13 in 10.0 mi NNW 8.1 mph - N/A   Clear
4:56 AM 15.8 °F 3.4 °F 15.8 °F 100% 30.11 in 10.0 mi NNW 10.4 mph - N/A   Clear
5:16 AM 17.6 °F 5.0 °F 12.2 °F 79% 30.10 in 10.0 mi NNW 11.5 mph - N/A   Clear
5:36 AM 17.6 °F 6.4 °F 10.4 °F 73% 30.10 in 10.0 mi NNW 9.2 mph - N/A   Clear
5:56 AM 15.8 °F 5.1 °F 12.2 °F 86% 30.09 in 10.0 mi NNW 8.1 mph - N/A   Clear
6:16 AM 17.6 °F 7.3 °F 14.0 °F 86% 30.08 in 10.0 mi North 8.1 mph - N/A   Clear
6:36 AM 17.6 °F 10.7 °F 12.2 °F 79% 30.08 in 10.0 mi NW 4.6 mph - N/A   Clear
6:56 AM 17.6 °F 8.2 °F 12.2 °F 79% 30.07 in 10.0 mi WNW 6.9 mph - N/A   Clear
7:16 AM 17.6 °F 7.3 °F 15.8 °F 93% 30.06 in 10.0 mi North 8.1 mph - N/A   Clear
7:36 AM 17.6 °F 8.2 °F 12.2 °F 79% 30.06 in 10.0 mi NNW 6.9 mph - N/A   Clear
7:56 AM 17.6 °F 7.3 °F 14.0 °F 86% 30.05 in 10.0 mi NW 8.1 mph - N/A   Clear
8:16 AM 17.6 °F - 15.8 °F 93% 30.05 in 10.0 mi Calm Calm - N/A   Clear
8:36 AM 17.6 °F 9.3 °F 15.8 °F 93% 30.04 in 10.0 mi NW 5.8 mph - N/A   Scattered Clouds
8:56 AM 17.6 °F 10.7 °F 15.8 °F 93% 30.03 in 10.0 mi WNW 4.6 mph - N/A   Mostly Cloudy
9:16 AM 17.6 °F - 15.8 °F 93% 30.03 in 10.0 mi Calm Calm - N/A   Partly Cloudy
9:36 AM 21.2 °F 11.7 °F 15.8 °F 80% 30.02 in 10.0 mi NW 8.1 mph - N/A   Mostly Cloudy
9:56 AM 21.2 °F 10.9 °F 17.6 °F 86% 30.02 in 10.0 mi NNW 9.2 mph - N/A   Mostly Cloudy
10:16 AM 21.2 °F 11.7 °F 17.6 °F 86% 30.01 in 10.0 mi NW 8.1 mph 16.1 mph N/A   Mostly Cloudy
10:36 AM 21.2 °F 10.1 °F 17.6 °F 86% 30.00 in 10.0 mi NW 10.4 mph 16.1 mph N/A   Scattered Clouds
10:56 AM 21.2 °F 8.3 °F 17.6 °F 86% 30.00 in 10.0 mi North 13.8 mph 18.4 mph N/A   Mostly Cloudy
11:16 AM 21.2 °F 8.3 °F 17.6 °F 86% 30.00 in 10.0 mi North 13.8 mph 23.0 mph N/A   Overcast
11:36 AM 23.0 °F 9.2 °F 19.4 °F 86% 30.00 in 10.0 mi North 17.3 mph 21.9 mph N/A   Overcast
11:56 AM 24.8 °F 11.9 °F 19.4 °F 80% 30.00 in 10.0 mi North 16.1 mph 20.7 mph N/A   Overcast
12:16 PM 23.0 °F 9.6 °F 15.8 °F 74% 29.99 in 10.0 mi North 16.1 mph 25.3 mph N/A   Scattered Clouds
12:36 PM 23.0 °F 8.0 °F 15.8 °F 74% 30.00 in 10.0 mi North 20.7 mph 26.5 mph N/A   Partly Cloudy
12:56 PM 23.0 °F 9.6 °F 15.8 °F 74% 29.99 in 10.0 mi North 16.1 mph 23.0 mph N/A   Clear
1:16 PM 23.0 °F 8.3 °F 15.8 °F 74% 29.98 in 10.0 mi North 19.6 mph 26.5 mph N/A   Partly Cloudy
1:36 PM 24.8 °F 11.1 °F 15.8 °F 69% 29.98 in 10.0 mi North 18.4 mph 25.3 mph N/A   Clear
1:56 PM 23.0 °F 8.0 °F 14.0 °F 68% 29.98 in 10.0 mi North 20.7 mph 29.9 mph N/A   Clear
2:16 PM 23.0 °F 7.2 °F 14.0 °F 68% 29.98 in 10.0 mi North 23.0 mph 27.6 mph N/A   Clear
2:36 PM 23.0 °F 10.1 °F 15.8 °F 74% 29.97 in 10.0 mi North 15.0 mph 24.2 mph N/A   Clear
2:56 PM 23.0 °F 6.9 °F 12.2 °F 63% 29.96 in 10.0 mi North 24.2 mph 31.1 mph N/A   Clear
3:16 PM 21.2 °F 6.4 °F 10.4 °F 63% 29.96 in 10.0 mi North 18.4 mph 27.6 mph N/A   Clear
3:36 PM 21.2 °F 6.8 °F 10.4 °F 63% 29.96 in 10.0 mi North 17.3 mph 24.2 mph N/A   Clear
3:56 PM 21.2 °F 3.9 °F 10.4 °F 63% 29.95 in 10.0 mi NNE 26.5 mph 33.4 mph N/A   Clear
4:16 PM 21.2 °F 4.9 °F 8.6 °F 58% 29.95 in 10.0 mi North 23.0 mph 31.1 mph N/A   Clear
4:36 PM 21.2 °F 8.3 °F 8.6 °F 58% 29.94 in 10.0 mi North 13.8 mph 20.7 mph N/A   Clear
4:56 PM 21.2 °F 9.5 °F 8.6 °F 58% 29.94 in 10.0 mi North 11.5 mph - N/A   Clear
5:16 PM 21.2 °F 6.0 °F 6.8 °F 54% 29.94 in 10.0 mi NNE 19.6 mph 31.1 mph N/A   Clear
5:36 PM 19.4 °F 1.4 °F 6.8 °F 58% 29.93 in 10.0 mi North 26.5 mph 34.5 mph N/A   Clear
5:56 PM 19.4 °F 3.6 °F 8.6 °F 63% 29.94 in 10.0 mi NNE 19.6 mph 29.9 mph N/A   Clear
6:16 PM 17.6 °F 0.1 °F 6.8 °F 63% 29.94 in 10.0 mi NNE 23.0 mph 31.1 mph N/A   Clear
6:36 PM 17.6 °F 2.2 °F 6.8 °F 63% 29.94 in 10.0 mi North 17.3 mph 31.1 mph N/A   Clear
7:16 PM 15.8 °F 0.9 °F 3.2 °F 58% 29.95 in 10.0 mi North 15.0 mph 24.2 mph N/A   Clear
7:36 PM 15.8 °F 4.2 °F 5.0 °F 62% 29.96 in 10.0 mi NNW 9.2 mph 19.6 mph N/A   Clear
7:56 PM 15.8 °F 2.1 °F 3.2 °F 58% 29.97 in 10.0 mi North 12.7 mph 19.6 mph N/A   Clear
8:16 PM 15.8 °F 0.3 °F 1.4 °F 53% 29.97 in 10.0 mi North 16.1 mph 24.2 mph N/A   Clear
8:36 PM 15.8 °F -3.4 °F 1.4 °F 53% 29.96 in 10.0 mi North 26.5 mph 34.5 mph N/A   Clear
8:56 PM 15.8 °F -4.7 °F 1.4 °F 53% 29.95 in 10.0 mi North 31.1 mph 41.4 mph N/A   Clear
9:16 PM 15.8 °F -2.7 °F 1.4 °F 53% 29.96 in 10.0 mi North 24.2 mph 36.8 mph N/A   Clear
9:36 PM 15.8 °F -2.3 °F 1.4 °F 53% 29.97 in 10.0 mi North 23.0 mph 35.7 mph N/A   Clear
9:56 PM 15.8 °F -1.5 °F 1.4 °F 53% 29.99 in 10.0 mi North 20.7 mph 29.9 mph N/A   Clear
10:16 PM 14.0 °F -2.0 °F 1.4 °F 57% 29.99 in 10.0 mi North 16.1 mph 20.7 mph N/A   Clear
10:36 PM 14.0 °F -4.3 °F 1.4 °F 57% 29.97 in 10.0 mi North 21.9 mph 31.1 mph N/A   Clear
11:16 PM 14.0 °F -5.5 °F 1.4 °F 57% 29.97 in 10.0 mi North 25.3 mph 38.0 mph N/A   Clear
11:36 PM 14.0 °F -4.7 °F 1.4 °F 57% 29.97 in 10.0 mi North 23.0 mph 29.9 mph N/A   Clear
11:56 PM 14.0 °F -5.8 °F 1.4 °F 57% 29.98 in 10.0 mi North 26.5 mph 33.4 mph N/A   Clear